EW1587 Weather Reports


time (UTC)temp
F
wind
direction
speed
knots
gust
knots
rain 1hr
in
rain 24hr
in
rain mn
in
humidity
%
barometer
mb
20260902070522 67 105 0.0 1.7 0.00 0.00 0.00 82 1011.9
20260902070025 67 96 0.0 0.9 0.00 0.00 0.00 82 1011.9
20260902065521 67 85 0.0 0.9 0.00 0.00 0.00 83 1011.8
20260902065021 67 96 0.0 1.7 0.00 0.00 0.00 83 1011.8
20260902064524 68 75 0.0 1.7 0.00 0.00 0.00 82 1011.9
20260902064018 68 89 0.0 1.7 0.00 0.00 0.00 79 1012.1
20260902063518 68 84 0.0 0.9 0.00 0.00 0.00 77 1012.3
20260902063029 68 100 0.0 0.0 0.00 0.00 0.00 76 1012.4
20260902062518 69 101 0.0 0.0 0.00 0.00 0.00 75 1012.4
20260902062021 69 101 0.0 2.6 0.00 0.00 0.00 75 1012.5
20260902061530 69 101 0.0 2.6 0.00 0.00 0.00 76 1012.4
20260902061018 68 96 0.0 1.7 0.00 0.00 0.00 76 1012.3
20260902060517 68 123 0.0 1.7 0.00 0.00 0.00 79 1012.3
20260902060020 68 92 0.0 1.7 0.00 0.00 0.00 79 1012.1
20260902055516 68 81 0.0 3.5 0.00 0.00 0.00 79 1011.9
20260902055016 68 63 2.6 4.3 0.00 0.00 0.00 79 1011.8
20260902054520 68 60 2.6 4.3 0.00 0.00 0.00 79 1012.0
20260902054015 67 65 2.6 4.3 0.00 0.00 0.00 81 1012.2
20260902053514 67 56 0.9 3.5 0.00 0.00 0.00 82 1012.2
20260902053018 68 61 2.6 3.5 0.00 0.00 0.00 81 1012.2
20260902052513 69 58 0.0 4.3 0.00 0.00 0.00 78 1012.2
20260902052009 70 65 0.9 4.3 0.00 0.00 0.00 76 1012.4
20260902051509 70 65 4.3 5.2 0.00 0.00 0.00 75 1012.6
20260902051006 69 67 2.6 3.5 0.00 0.00 0.00 77 1012.8
20260902050506 69 65 1.7 1.7 0.00 0.00 0.00 80 1012.6
20260902050007 69 74 0.0 0.0 0.00 0.00 0.00 80 1012.8
20260902045504 69 79 0.0 0.0 0.00 0.00 0.00 80 1012.7
20260902045006 69 79 0.0 0.0 0.00 0.00 0.00 79 1012.7
20260902044504 69 78 0.0 1.7 0.00 0.00 0.00 78 1012.8
20260902044006 70 71 0.0 1.7 0.00 0.00 0.00 77 1012.7
20260902043503 70 68 0.9 1.7 0.00 0.00 0.00 76 1012.8
20260902043003 70 61 0.0 1.7 0.00 0.00 0.00 76 1012.6
20260902042503 70 61 0.0 1.7 0.00 0.00 0.00 77 1012.7
20260902042003 70 56 0.0 1.7 0.00 0.00 0.00 79 1012.4
20260902041503 70 60 0.0 3.5 0.00 0.00 0.00 80 1012.2
20260902041003 69 61 2.6 3.5 0.00 0.00 0.00 81 1012.0
20260902040503 69 65 2.6 5.2 0.00 0.00 0.00 82 1012.0
20260902040002 68 63 3.5 5.2 0.00 0.00 0.00 83 1011.9
20260902035502 68 60 3.5 5.2 0.00 0.00 0.00 85 1012.0
20260902035001 68 64 0.9 2.6 0.00 0.00 0.00 86 1012.0
20260902034501 68 72 0.0 1.7 0.00 0.00 0.00 86 1012.2
20260902034002 69 65 0.0 1.7 0.00 0.00 0.00 85 1012.2
20260902033501 69 58 0.0 0.9 0.00 0.00 0.00 83 1012.4
20260902033001 69 304 0.0 0.0 0.00 0.00 0.00 82 1012.6
20260902032503 70 304 0.0 0.0 0.00 0.00 0.00 82 1012.7
20260902032001 70 303 0.0 0.0 0.00 0.00 0.00 83 1012.6
20260902031503 70 304 0.0 0.0 0.00 0.00 0.00 83 1012.5
20260902031002 70 303 0.0 0.0 0.00 0.00 0.00 85 1012.5
20260902030604 70 304 0.0 0.0 0.00 0.00 0.00 85 1012.5
20260902025559 70 304 0.0 0.9 0.00 0.00 0.00 86 1012.7
20260902025059 69 295 0.0 0.9 0.00 0.00 0.00 84 1012.8
20260902024600 69 322 0.0 0.0 0.00 0.00 0.00 81 1012.7
20260902024059 69 323 0.0 0.0 0.00 0.00 0.00 80 1012.5
20260902023559 69 323 0.0 0.0 0.00 0.00 0.00 80 1012.4
20260902023102 70 322 0.0 0.9 0.00 0.00 0.00 80 1012.3
20260902022559 70 321 0.0 0.9 0.00 0.00 0.00 79 1012.2
20260902022058 70 302 0.0 0.0 0.00 0.00 0.00 79 1012.3
20260902021608 71 290 0.0 0.0 0.00 0.00 0.00 79 1012.3
20260902021059 71 290 0.0 0.0 0.00 0.00 0.00 78 1012.3
20260902020559 71 290 0.0 0.0 0.00 0.00 0.00 77 1012.3
20260902020104 71 290 0.0 0.9 0.00 0.00 0.00 76 1012.3
20260902015601 71 290 0.0 0.9 0.00 0.00 0.00 75 1012.3
20260902015058 72 288 0.0 0.0 0.00 0.00 0.00 74 1012.3
20260902014601 72 288 0.0 0.0 0.00 0.00 0.00 74 1012.2
20260902014057 72 288 0.0 0.0 0.00 0.00 0.00 72 1012.1
20260902013557 72 288 0.0 0.0 0.00 0.00 0.00 71 1011.9
20260902013057 73 288 0.0 0.0 0.00 0.00 0.00 70 1012.0
20260902012559 73 288 0.0 0.0 0.00 0.00 0.00 69 1012.1
20260902012057 73 288 0.0 0.0 0.00 0.00 0.00 68 1012.0
20260902011557 74 288 0.0 0.0 0.00 0.00 0.00 68 1012.0
20260902011057 74 288 0.0 0.0 0.00 0.00 0.00 66 1012.0
20260902010556 74 288 0.0 0.9 0.00 0.00 0.00 65 1011.9
20260902010056 75 288 0.0 0.9 0.00 0.00 0.00 64 1011.9
20260902005555 75 290 0.0 0.9 0.00 0.00 0.00 63 1011.9
20260902005526 75 290 0.0 0.9 0.00 0.00 0.00 63 1012.0
20260902005056 75 23 0.0 0.9 0.00 0.00 0.00 65 1011.9
20260902004555 76 37 0.0 0.0 0.00 0.00 0.00 66 1011.7
20260902004055 76 22 0.0 0.9 0.00 0.00 0.00 63 1011.8
20260902003554 76 307 0.0 0.9 0.00 0.00 0.00 60 1011.9
20260902003054 76 314 0.0 0.9 0.00 0.00 0.00 60 1012.0
20260902002553 76 305 0.0 0.0 0.00 0.00 0.00 62 1012.0
20260902000548 77 328 0.0 1.7 0.00 0.00 0.00 58 1012.2
20260902000151 78 337 0.0 0.9 0.00 0.00 0.00 58 1012.1
20260901235549 78 325 0.0 0.9 0.00 0.00 0.00 58 1012.2
20260901235049 78 332 0.0 0.9 0.00 0.00 0.00 57 1012.2
20260901234651 78 330 0.0 0.9 0.00 0.00 0.00 58 1012.2
20260901225040 80 290 1.7 4.3 0.00 0.00 0.00 55 1012.2
20260901224540 80 297 2.6 4.3 0.00 0.00 0.00 55 1012.2
20260901223537 80 287 2.6 7.0 0.00 0.00 0.00 55 1012.4
20260901223038 80 257 3.5 7.0 0.00 0.00 0.00 54 1012.4
20260901222537 80 291 3.5 6.1 0.00 0.00 0.00 55 1012.5
20260901222036 80 291 1.7 6.1 0.00 0.00 0.00 54 1012.4
20260901221602 80 278 2.6 5.2 0.00 0.00 0.00 55 1012.5
20260901221036 80 283 2.6 4.3 0.00 0.00 0.00 53 1012.4
20260901220535 81 295 1.7 3.5 0.00 0.00 0.00 52 1012.4
20260901220136 81 285 0.0 3.5 0.00 0.00 0.00 53 1012.2
20260901214512 82 295 0.0 0.9 0.00 0.00 0.00 48 1012.2
20260901214012 82 281 0.0 0.0 0.00 0.00 0.00 49 1012.1
20260901213513 83 291 0.0 0.9 0.00 0.00 0.00 51 1012.2
20260901213033 83 252 0.0 0.9 0.00 0.00 0.00 49 1012.3
20260901212511 84 283 0.0 1.7 0.00 0.00 0.00 48 1012.3
20260901212011 85 246 0.0 1.7 0.00 0.00 0.00 48 1012.3
20260901211519 85 315 0.0 0.0 0.00 0.00 0.00 47 1012.2
20260901211010 85 274 0.0 0.0 0.00 0.00 0.00 49 1012.1
20260901210510 85 274 0.0 0.9 0.00 0.00 0.00 45 1012.1
20260901210017 86 274 0.0 0.9 0.00 0.00 0.00 44 1012.2
20260901205510 86 311 0.0 0.9 0.00 0.00 0.00 44 1012.2
20260901205009 87 308 0.0 0.0 0.00 0.00 0.00 46 1012.2
20260901204510 87 308 0.0 0.0 0.00 0.00 0.00 45 1012.1
20260901204009 86 311 0.0 0.0 0.00 0.00 0.00 44 1012.1
20260901203511 86 311 0.0 0.0 0.00 0.00 0.00 42 1012.1
20260901203015 86 311 0.0 0.0 0.00 0.00 0.00 42 1012.1
20260901202508 86 311 0.0 0.9 0.00 0.00 0.00 43 1012.2
20260901202008 86 311 0.0 0.9 0.00 0.00 0.00 41 1012.2
20260901201509 86 156 0.0 0.9 0.00 0.00 0.00 41 1012.3
20260901201009 85 296 0.0 1.7 0.00 0.00 0.00 42 1012.5
20260901200510 85 280 0.0 1.7 0.00 0.00 0.00 40 1012.6
20260901200012 86 271 0.0 0.9 0.00 0.00 0.00 43 1012.8
20260901195507 85 278 0.0 4.3 0.00 0.00 0.00 39 1012.7
20260901195007 86 320 0.0 4.3 0.00 0.00 0.00 36 1012.7
20260901194506 87 295 0.9 3.5 0.00 0.00 0.00 38 1012.8
20260901194006 86 238 0.0 1.7 0.00 0.00 0.00 39 1012.7
20260901193507 85 304 0.0 4.3 0.00 0.00 0.00 37 1012.7
20260901193006 85 311 0.9 5.2 0.00 0.00 0.00 38 1012.7
20260901192504 87 290 1.7 5.2 0.00 0.00 0.00 35 1012.8
20260901192004 87 256 0.9 5.2 0.00 0.00 0.00 38 1012.8
20260901191503 87 294 0.0 0.9 0.00 0.00 0.00 37 1012.8
20260901191003 87 304 0.0 0.9 0.00 0.00 0.00 39 1012.8
20260901190501 88 307 0.0 0.9 0.00 0.00 0.00 39 1012.8
20260901190100 87 174 0.0 0.9 0.00 0.00 0.00 40 1012.8
20260901190003 86 305 0.0 0.9 0.00 0.00 0.00 40 1012.8
20260901185600 86 269 0.0 0.9 0.00 0.00 0.00 39 1012.8
20260901185059 86 113 0.0 1.7 0.00 0.00 0.00 38 1012.8
20260901184558 87 82 0.0 1.7 0.00 0.00 0.00 38 1012.8
20260901184058 87 63 0.0 0.9 0.00 0.00 0.00 39 1012.9
20260901183601 87 307 0.0 0.9 0.00 0.00 0.00 41 1012.8
20260901183056 87 242 0.0 0.9 0.00 0.00 0.00 44 1012.9
20260901182555 86 139 0.0 0.9 0.00 0.00 0.00 41 1012.9
20260901182053 85 323 0.0 0.9 0.00 0.00 0.00 41 1012.9
20260901181551 84 276 0.0 0.9 0.00 0.00 0.00 43 1013.0
20260901181050 84 295 0.0 0.9 0.00 0.00 0.00 44 1013.1
20260901180550 83 300 0.0 0.9 0.00 0.00 0.00 44 1013.2
20260901180049 83 286 0.0 0.9 0.00 0.00 0.00 45 1013.2
20260901175549 83 299 0.0 0.9 0.00 0.00 0.00 45 1013.3
20260901175048 83 293 0.0 0.9 0.00 0.00 0.00 49 1013.4
20260901174548 82 305 0.0 2.6 0.00 0.00 0.00 45 1013.5
20260901174049 83 290 0.0 2.6 0.00 0.00 0.00 45 1013.5
20260901173549 83 244 0.0 2.6 0.00 0.00 0.00 48 1013.5
20260901173048 83 302 0.0 2.6 0.00 0.00 0.00 47 1013.5
20260901172547 83 300 0.0 1.7 0.00 0.00 0.00 46 1013.6
20260901172047 83 291 0.0 3.5 0.00 0.00 0.00 47 1013.7
20260901171548 83 293 0.0 3.5 0.00 0.00 0.00 50 1013.9
20260901171048 83 295 0.0 1.7 0.00 0.00 0.00 50 1013.8
20260901170545 82 69 0.0 1.7 0.00 0.00 0.00 51 1013.8
20260901170048 82 56 0.0 3.5 0.00 0.00 0.00 49 1013.7
20260901165546 82 56 0.9 3.5 0.00 0.00 0.00 52 1013.7
20260901165042 81 252 0.0 0.9 0.00 0.00 0.00 54 1013.9
20260901164541 80 293 0.0 1.7 0.00 0.00 0.00 55 1013.9
20260901164039 79 341 0.0 1.7 0.00 0.00 0.00 57 1013.7
20260901163539 78 56 0.0 5.2 0.00 0.00 0.00 58 1013.7
20260901163038 78 34 1.7 5.2 0.00 0.00 0.00 57 1013.8
20260901162537 78 67 0.9 4.3 0.00 0.00 0.00 56 1013.8
20260901162038 78 22 0.0 2.6 0.00 0.00 0.00 58 1013.8
20260901161538 77 266 0.0 2.6 0.00 0.00 0.00 61 1013.8
20260901161034 76 57 0.0 4.3 0.00 0.00 0.00 65 1013.8
20260901160533 75 92 0.9 5.2 0.00 0.00 0.00 65 1013.8
20260901160036 75 64 2.6 6.1 0.00 0.00 0.00 66 1013.7
20260901155535 75 50 0.9 4.3 0.00 0.00 0.00 67 1013.7
20260901155034 74 64 1.7 4.3 0.00 0.00 0.00 66 1013.6
20260901154531 74 66 0.9 5.2 0.00 0.00 0.00 67 1013.8
20260901154032 74 69 0.0 5.2 0.00 0.00 0.00 70 1013.7
20260901153532 74 75 0.9 5.2 0.00 0.00 0.00 66 1013.7
20260901153039 75 75 0.0 1.7 0.00 0.00 0.00 66 1013.8
20260901152531 75 30 0.0 2.6 0.00 0.00 0.00 67 1013.8
20260901152030 76 58 0.9 3.5 0.00 0.00 0.00 66 1013.9
20260901151530 76 79 0.0 1.7 0.00 0.00 0.00 66 1014.0
20260901151028 75 314 0.0 2.6 0.00 0.00 0.00 69 1013.9
20260901150526 75 1 0.0 2.6 0.00 0.00 0.00 67 1013.9
20260901150026 75 30 0.0 3.5 0.00 0.00 0.00 68 1013.9
20260901145525 74 29 0.0 3.5 0.00 0.00 0.00 70 1013.9
20260901145024 74 72 0.0 2.6 0.00 0.00 0.00 74 1014.0
20260901144522 74 23 0.0 1.7 0.00 0.00 0.00 74 1014.0
20260901144022 74 13 0.0 1.7 0.00 0.00 0.00 74 1014.0
20260901143521 73 333 0.0 4.3 0.00 0.00 0.00 74 1013.9
20260901143049 73 330 0.9 4.3 0.00 0.00 0.00 75 1013.9
20260901142518 73 56 0.0 1.7 0.00 0.00 0.00 78 1013.8
20260901142008 72 266 0.0 2.6 0.00 0.00 0.00 79 1013.9
20260901141505 71 267 0.0 4.3 0.00 0.00 0.00 81 1013.9
20260901141007 70 323 1.7 5.2 0.00 0.00 0.00 81 1014.0
20260901140502 70 290 1.7 5.2 0.00 0.00 0.00 83 1014.0
20260901140001 69 312 0.9 5.2 0.00 0.00 0.00 85 1014.1
20260901135604 69 301 3.5 5.2 0.00 0.00 0.00 84 1014.1
20260901135102 68 302 2.6 5.2 0.00 0.00 0.00 87 1014.0
20260901134606 68 295 3.5 4.3 0.00 0.00 0.00 88 1014.0
20260901134056 68 294 0.0 2.6 0.00 0.00 0.00 92 1014.1
20260901133555 67 295 0.0 0.9 0.00 0.00 0.00 92 1014.1
20260901133054 67 253 0.0 0.9 0.00 0.00 0.00 94 1014.0
20260901132554 66 259 0.0 0.9 0.00 0.00 0.00 94 1014.1
20260901132053 65 277 0.0 0.9 0.00 0.00 0.00 94 1014.1
20260901131557 65 297 0.0 0.9 0.00 0.00 0.00 94 1014.0
20260901131051 65 300 0.0 0.9 0.00 0.00 0.00 94 1013.9
20260901130552 65 280 0.0 0.9 0.00 0.00 0.00 94 1013.7
20260901130049 65 252 0.0 2.6 0.00 0.00 0.00 95 1013.7
20260901125551 64 246 0.0 3.5 0.00 0.00 0.00 96 1013.6
20260901125049 64 276 0.9 3.5 0.00 0.00 0.00 97 1013.7
20260901124549 64 286 0.9 2.6 0.00 0.00 0.00 97 1013.7
20260901124047 63 301 0.0 0.0 0.00 0.00 0.00 97 1013.6
20260901123547 63 301 0.0 0.0 0.00 0.00 0.00 98 1013.5
20260901123048 63 295 0.0 0.9 0.00 0.00 0.00 98 1013.5
20260901122546 62 283 0.0 2.6 0.00 0.00 0.00 98 1013.5
20260901122044 62 293 1.7 2.6 0.00 0.00 0.00 98 1013.5
20260901121548 62 284 0.0 1.7 0.00 0.00 0.00 98 1013.5
20260901121044 62 240 0.0 4.3 0.00 0.00 0.00 99 1013.5
20260901120543 62 283 1.7 4.3 0.00 0.00 0.00 100 1013.3
20260901120045 61 286 0.9 2.6 0.00 0.00 0.00 100 1013.1
20260901115541 61 302 0.0 0.9 0.00 0.00 0.00 100 1013.1
20260901115041 61 294 0.0 0.0 0.00 0.00 0.00 99 1013.1
20260901114543 61 294 0.0 0.9 0.00 0.00 0.00 99 1013.0
20260901114038 61 294 0.0 0.9 0.00 0.00 0.00 100 1012.8
20260901113542 61 283 0.0 2.6 0.00 0.00 0.00 100 1012.8
20260901113038 61 297 0.0 2.6 0.00 0.00 0.00 100 1012.9
20260901112536 61 288 0.0 1.7 0.00 0.00 0.00 100 1012.8
20260901112038 61 253 0.0 2.6 0.00 0.00 0.00 100 1012.8
20260901111537 60 278 0.0 2.6 0.00 0.00 0.00 100 1012.7
20260901111033 60 284 0.0 0.9 0.00 0.00 0.00 99 1012.7
20260901110532 60 287 0.0 0.0 0.00 0.00 0.00 99 1012.7
20260901110034 60 290 0.0 0.0 0.00 0.00 0.00 99 1012.6
20260901105531 60 290 0.0 0.0 0.00 0.00 0.00 99 1012.6
20260901105033 61 290 0.0 0.9 0.00 0.00 0.00 99 1012.5
20260901104533 61 290 0.0 0.9 0.00 0.00 0.00 99 1012.5
20260901104029 61 273 0.0 0.0 0.00 0.00 0.00 99 1012.6
20260901103528 61 273 0.0 0.0 0.00 0.00 0.00 99 1012.7
20260901103027 61 298 0.0 0.0 0.00 0.00 0.00 99 1012.6
20260901102527 61 298 0.0 0.9 0.00 0.00 0.00 99 1012.5
20260901102026 61 300 0.0 0.9 0.00 0.00 0.00 99 1012.5
20260901101526 61 307 0.0 0.9 0.00 0.00 0.00 99 1012.5
20260901101025 61 298 0.0 1.7 0.00 0.00 0.00 100 1012.6
20260901100524 61 308 0.0 1.7 0.00 0.00 0.00 100 1012.5
20260901100024 61 248 0.0 0.9 0.00 0.00 0.00 99 1012.5
20260901095524 61 246 0.0 0.0 0.00 0.00 0.00 99 1012.5
20260901095025 61 236 0.0 0.9 0.00 0.00 0.00 99 1012.4
20260901094527 61 240 0.0 0.9 0.00 0.00 0.00 99 1012.2
20260901094023 61 240 0.0 0.0 0.00 0.00 0.00 99 1012.2
20260901093527 61 240 0.0 0.0 0.00 0.00 0.00 99 1012.2
20260901093022 61 243 0.0 0.0 0.00 0.00 0.00 99 1012.2
20260901092522 61 243 0.0 0.0 0.00 0.00 0.00 99 1012.1
20260901092024 61 243 0.0 0.0 0.00 0.00 0.00 99 1012.0
20260901091523 61 244 0.0 0.0 0.00 0.00 0.00 99 1012.0
20260901091020 61 242 0.0 0.0 0.00 0.00 0.00 98 1012.0
20260901090520 61 228 0.0 0.0 0.00 0.00 0.00 98 1012.0
20260901090021 61 228 0.0 0.0 0.00 0.00 0.00 98 1012.1
20260901085520 61 228 0.0 0.0 0.00 0.00 0.00 98 1012.0
20260901085020 61 226 0.0 0.0 0.00 0.00 0.00 98 1012.0
20260901084519 61 226 0.0 0.9 0.00 0.00 0.00 98 1011.9
20260901084020 61 227 0.0 1.7 0.00 0.00 0.00 98 1011.8
20260901083518 61 233 0.0 1.7 0.00 0.00 0.00 98 1011.9
20260901083023 61 242 0.0 0.9 0.00 0.00 0.00 98 1012.0
20260901082516 61 242 0.0 0.0 0.00 0.00 0.00 98 1012.0
20260901082018 61 219 0.0 0.0 0.00 0.00 0.00 98 1011.9
20260901081518 61 164 0.0 0.0 0.00 0.00 0.00 97 1011.9
20260901081015 61 162 0.0 0.0 0.00 0.00 0.00 97 1011.9
20260901080514 61 162 0.0 0.0 0.00 0.00 0.00 97 1012.0
20260901080013 61 162 0.0 0.0 0.00 0.00 0.00 97 1011.9
20260901075512 61 162 0.0 0.0 0.00 0.00 0.00 96 1011.9
20260901075012 61 162 0.0 0.0 0.00 0.00 0.00 96 1012.0
20260901074511 61 162 0.0 0.0 0.00 0.00 0.00 96 1012.0
20260901074010 62 162 0.0 0.0 0.00 0.00 0.00 96 1012.0
20260901073510 62 162 0.0 0.0 0.00 0.00 0.00 96 1011.9
20260901073009 62 162 0.0 0.0 0.00 0.00 0.00 96 1012.0
20260901072509 62 162 0.0 0.9 0.00 0.00 0.00 96 1012.0
20260901072007 62 18 0.0 0.9 0.00 0.00 0.00 96 1012.1
20260901071508 62 22 0.0 0.9 0.00 0.00 0.00 96 1012.2
20260901071008 62 22 0.0 0.9 0.00 0.00 0.00 96 1012.3